Regional Weather Roundup
Issued by NWS

Home | Current Version | Previous Version | Graphics & Text | Print | Product List | Glossary Off
Versions: 1 2 3 4 5 6 7 8 9 10 11 12 13 14 15 16 17 18 19 20 21 22 23 24 25 26 27 28 29 30 31 32 33 34 35 36 37 38 39 40 41 42 43 44 45 46 47 48 49 50

000
ASUS43 KMKX 212311
RWRWI

WISCONSIN REGIONAL WEATHER ROUNDUP
NATIONAL WEATHER SERVICE MILWAUKEE/SULLIVAN WI
600 PM CDT THU SEP 21 2017

NOTE: "FAIR" INDICATES FEW OR NO CLOUDS BELOW 12,000 FEET WITH NO
SIGNIFICANT WEATHER AND/OR OBSTRUCTIONS TO VISIBILITY.

WIZ001-002-006>008-014>016-023>028-220000-
NORTHWEST WISCONSIN

CITY           SKY/WX    TMP DP  RH WIND       PRES   REMARKS
SUPERIOR ARPT  CLOUDY    61  58  91 NE13G20   29.90S
ASHLAND        CLEAR     66  58  75 NE9       29.92F
HAYWARD        PTSUNNY   76  67  73 S9G16     29.90F
SIREN          MOSUNNY   78  66  67 SE10G16   29.85F
CUMBERLAND     MOSUNNY   73  64  73 SE9G17    29.89S
RICE LAKE      SUNNY     75  67  75 E8        29.90S
CHETEK         MOSUNNY   76  69  79 MISG      29.90S
LADYSMITH      PTSUNNY   75  67  76 SE9       29.94F
EAU CLAIRE     SUNNY     81  68  64 SE10      29.87F HX  84
MENOMONIE      SUNNY     80  66  62 SE8G16    29.87S HX  82
NEW RICHMOND   SUNNY     80  65  61 SE10      29.85S HX  82
OSCEOLA        MOSUNNY   80  67  63 SE9G22    29.86S HX  82
$$

WIZ003>005-009-010-017-018-220000-
NORTH CENTRAL WISCONSIN

CITY           SKY/WX    TMP DP  RH WIND       PRES   REMARKS
MANITOWISH WTR MOCLDY    75  68  77 SE7       29.96S
ARBOR VITAE    CLEAR     77  69  76 S10       29.97F
WOODRUFF       CLEAR     77  69  76 S10       29.97F
RHINELANDER    CLOUDY    73  68  84 SE7       30.00S
EAGLE RIVER    MOCLDY    74  64  71 S9        29.99R
LAND O LAKES   CLEAR     77  64  63 S6        30.00S
PHILLIPS       CLOUDY    74  69  83 S10G16    29.95R
TOMAHAWK       CLOUDY    72  66  81 SE3       29.98F
MEDFORD        CLEAR     74  67  79 SE5       29.95F
MERRILL        CLEAR     75  68  80 SE6       29.98F
$$

WIZ029-030-035-036-043>047-220000-
CENTRAL WISCONSIN

CITY           SKY/WX    TMP DP  RH WIND       PRES   REMARKS
WAUSAU         CLEAR     76  68  76 SE9       29.95F
MOSINEE        PTCLDY    75  66  73 S8        29.98F
MARSHFIELD     CLEAR     78  65  63 SE9       29.95S HX  80
STEVENS POINT  CLEAR     77  67  70 SE6       29.98S
WAUPACA        CLOUDY    83  65  54 SE5       29.96F HX  85
WAUTOMA        PTCLDY    82  67  60 SE6       29.96F HX  84
WISC RAPIDS    CLEAR     80  66  62 S6        29.97S HX  82
CAMP DOUGLAS   CLEAR     82  66  60 SE7       29.93F HX  84
$$

WIZ011>013-019>022-031-037>040-048>050-220000-
NORTHEAST WISCONSIN

CITY           SKY/WX    TMP DP  RH WIND       PRES   REMARKS
ANTIGO         PTCLDY    72  67  84 SE6       30.01F
SHAWANO        CLEAR     77  70  78 CALM      29.97F
OCONTO         CLEAR     74  68  80 E5        29.99R
STURGEON BAY   CLEAR     72  67  84 E6        30.00S
GREEN BAY      CLOUDY    81  69  67 NE3       29.98S HX  84
MANITOWOC      CLOUDY    69  66  90 E6        30.00S
APPLETON       MOCLDY    82  63  51 VRB5      29.97F HX  83
CLINTONVILLE   CLEAR     81  64  57 S5        29.97F HX  82
OSHKOSH        CLEAR     81  68  64 SE5       29.97F HX  84
$$

WIZ032>034-041-042-053>061-220000-
SOUTHWEST WISCONSIN

CITY           SKY/WX    TMP DP  RH WIND       PRES   REMARKS
LA CROSSE      NOT AVBL
SPARTA         SUNNY     81  65  58 SE8       29.92S HX  83
VIROQUA        SUNNY     82  64  56 SE10      29.93F HX  83
BOSCOBEL       SUNNY     87  59  38 VRB3      29.91F HX  86
PRAIRIE DU CHI SUNNY     85  58  40 SE7       29.89S HX  84
PLATTEVILLE    CLOUDY    84  65  53 S16G22    29.96S HX  86
$$

WIZ056-057-062-063-064-067-068-220000-
SOUTH CENTRAL WISCONSIN

CITY           SKY/WX    TMP DP  RH WIND       PRES   REMARKS
REEDSBURG      CLOUDY    83  66  56 SE3       29.94F HX  84
BARABOO/DELLS  CLOUDY    82  64  55 SE7       29.95F HX  83
LONE ROCK      CLOUDY    84  64  50 SE9       29.93F HX  85
MINERAL POINT  MOSUNNY   84  63  48 S10G16    29.96F HX  85
MADISON        CLOUDY    83  68  60 S5        29.96S HX  86
MIDDLETON      CLOUDY    85  67  56 SE7       29.97S HX  87
WATERTOWN      CLOUDY    82  69  65 E7        29.96S HX  85
MONROE         CLOUDY    82  61  47 S8        29.97F HX  83
JANESVILLE     MOCLDY    88  57  35 S7        29.96F HX  86
$$

WIZ051-052-058>065-066-070>072-220000-
SOUTHEAST WISCONSIN

CITY           SKY/WX    TMP DP  RH WIND       PRES   REMARKS
MILWAUKEE      MOCLDY    78  69  73 SE8       29.98S HX  80
WAUKESHA       CLEAR     79  66  65 E9        29.99S HX  81
MILWAUKEE/TIMM CLEAR     79  63  57 E6        29.99S HX  80
RACINE         PTCLDY    80  70  71 SE7       29.99F HX  83
BURLINGTON     PTCLDY    84  68  57 SE5       29.98R HX  87
KENOSHA        PTCLDY    80  68  66 E6        29.98F HX  83
FOND DU LAC    PTCLDY    81  64  56 SE6       29.97F HX  82
SHEBOYGAN      CLOUDY    75  70  84 S5        29.99S
WEST BEND        N/A     77  70  78 E5        29.99S
JUNEAU         CLOUDY    80  69  70 CALM      29.98S HX  83
$$

LSZ147-162-220000-
LAKE SUPERIOR

STATION/POSITION TIME  TEMP    WIND        PRES    WAVE
                       AIR SEA DIR/SP/G            HT/PER
                 (UTC) (F)     (DEG/KT/KT) (MB)    (FT/S)
W MID LAKE BUOY  2250   58 54   60/ 16/ 17 1014.0F   2/ 3
DEVILS ISLAND    2300   60      70/ 16/ 19 1013.5F
SAXON HARBOR     2240   64      50/  6/  9 1012.2F
$$

LMZ867-665-643>646-220000-
LAKE MICHIGAN

STATION/POSITION TIME  TEMP    WIND        PRES    WAVE
                       AIR SEA DIR/SP/G            HT/PER
                 (UTC) (F)     (DEG/KT/KT) (MB)    (FT/S)
S GREEN BAY BUOY 2300   69 68   60/  8/ 10 1015.2
N MID LAKE BUOY  2250   68 67  150/  4/  6 1016.2F   1/ 4
NORTHPORT PIER   2240   69     150/  6/  6 1015.6F
KEWAUNEE LAKESHO 2242   64     100/  3/  4 1014.9F
SHEBOYGAN LAKESH 2300   70     170/  4/  5 1015.0F
PORT WASHINGTON  2230   72     120/  1/  2 1016.3S
ATWATER BUOY     2209   71 67  330/  2/  2 1015.6F
MILWAUKEE LAKESH 2250   72      50/  3/  3   N/A
S MID LAKE BUOY  2250   73 71   90/  6/  6 1015.4F   0
KENOSHA   LAKESH 2300   75     180/  3/  4 1014.6
$$

TC  - TEMPERATURE IN CELSIUS
VSB - VISIBILITY IN STATUTE MILES
WCI - WIND CHILL INDEX
HX  - HEAT INDEX





USA.gov is the U.S. government's official web portal to all federal, state and local government web resources and services.